Location: Roland
(31.1349°N, 85.4372°W)
Time: 20:59:51
(UTC+00:00)

Vanguard 1 - All Passes

Search period start: 17 April 2021 00:00
Search period end: 27 April 2021 00:00
Orbit: 648 x 3834 km, 34.3° (Epoch: 17 April)

Date Brightness Start Highest point End Pass type
(mag) Time Alt. Az. Time Alt. Az. Time Alt. Az.
17 Apr - 00:23:51 10° WNW 00:47:30 89° SSW 01:07:19 10° ESE visible
17 Apr - 02:51:35 10° WNW 03:13:32 54° SW 03:28:21 10° SSE visible
17 Apr - 05:26:06 10° W 05:34:47 15° WSW 05:41:46 10° SSW visible
17 Apr - 17:37:58 10° SSW 17:48:43 40° SE 18:06:20 10° ENE daylight
17 Apr - 19:56:50 10° WSW 20:12:09 83° SSE 20:35:52 10° ENE daylight
17 Apr - 22:19:49 10° W 22:40:18 81° N 23:03:41 10° E daylight
18 Apr - 00:45:30 10° WNW 01:09:13 83° SSW 01:28:29 10° ESE visible
18 Apr - 03:13:44 10° WNW 03:34:16 43° SW 03:48:23 10° SSE visible
18 Apr - 15:46:50 10° SE 15:49:32 11° ESE 15:52:33 10° ESE daylight
18 Apr - 17:57:59 10° SSW 18:09:16 51° SE 18:28:34 10° ENE daylight
18 Apr - 20:17:52 10° WSW 20:33:43 89° NNW 20:57:44 10° ENE daylight
18 Apr - 22:41:20 10° W 23:02:21 83° N 23:25:24 10° E daylight
19 Apr - 01:07:09 10° WNW 01:30:43 74° SSW 01:49:25 10° SE visible
19 Apr - 03:36:16 10° WNW 03:54:47 34° SW 04:08:01 10° S visible
19 Apr - 16:03:06 10° SSE 16:09:39 18° SE 16:18:39 10° E daylight
19 Apr - 18:18:19 10° SW 18:30:03 63° SE 18:50:35 10° ENE daylight
19 Apr - 20:39:02 10° W 20:55:29 84° N 21:19:38 10° E daylight
19 Apr - 23:02:50 10° W 23:24:22 86° NNE 23:47:00 10° ESE daylight
20 Apr - 01:28:50 10° WNW 01:52:00 65° SSW 02:10:06 10° SE visible
20 Apr - 03:59:28 10° W 04:15:11 25° SW 04:27:03 10° S visible
20 Apr - 16:21:52 10° S 16:29:47 27° SE 16:42:05 10° E daylight
20 Apr - 18:38:54 10° SW 18:51:04 74° SSE 19:12:31 10° ENE daylight
20 Apr - 21:00:17 10° W 21:17:22 82° N 21:41:35 10° E daylight
20 Apr - 23:24:19 10° WNW 23:46:15 89° SSW 00:08:28 10° ESE daylight
21 Apr - 01:50:38 10° WNW 02:13:04 55° SW 02:30:31 10° SE visible
21 Apr - 04:23:57 10° W 04:35:33 17° SW 04:44:58 10° SSW visible
21 Apr - 16:41:24 10° SSW 16:50:04 37° SE 17:04:42 10° ENE daylight
21 Apr - 18:59:42 10° WSW 19:12:19 84° SSE 19:34:26 10° ENE daylight
21 Apr - 21:21:36 10° W 21:39:19 81° N 22:03:31 10° E daylight
21 Apr - 23:45:47 10° WNW 00:07:59 82° SSW 00:29:44 10° ESE daylight
22 Apr - 02:12:40 10° WNW 02:33:56 45° SW 02:50:35 10° SSE visible
22 Apr - 04:52:58 10° WSW 04:55:57 10° WSW 04:58:45 10° SW visible
22 Apr - 17:01:24 10° SSW 17:10:33 48° SE 17:26:55 10° ENE daylight
22 Apr - 19:20:39 10° WSW 19:33:46 89° NNW 19:56:24 10° ENE daylight
22 Apr - 21:42:57 10° W 22:01:17 83° N 22:25:24 10° E daylight
23 Apr - 00:07:17 10° WNW 00:29:33 74° SSW 00:50:46 10° SE visible
23 Apr - 02:35:05 10° WNW 02:54:38 35° SW 03:10:14 10° SSE visible
23 Apr - 15:07:17 10° SSE 15:11:41 15° SE 15:17:20 10° E daylight
23 Apr - 17:21:42 10° SW 17:31:13 61° SSE 17:48:55 10° ENE daylight
23 Apr - 19:41:44 10° W 19:55:24 83° N 20:18:26 10° E daylight
23 Apr - 22:04:17 10° WNW 22:23:12 86° NNE 22:47:11 10° ESE daylight
24 Apr - 00:28:49 10° WNW 00:50:56 64° SSW 01:11:31 10° SE visible
24 Apr - 02:58:07 10° W 03:15:14 27° SW 03:29:17 10° S visible
24 Apr - 15:25:43 10° S 15:31:51 23° SE 15:40:58 10° E daylight
24 Apr - 17:42:16 10° SW 17:52:09 73° SSE 18:10:51 10° ENE daylight
24 Apr - 20:02:52 10° W 20:17:08 81° N 20:40:30 10° E daylight
24 Apr - 22:25:37 10° WNW 22:45:01 88° SSW 23:08:47 10° ESE daylight
25 Apr - 00:50:29 10° WNW 01:12:07 55° SW 01:31:58 10° SE visible
25 Apr - 03:22:20 10° W 03:35:48 19° SW 03:47:21 10° SSW visible
25 Apr - 15:45:10 10° SSW 15:52:05 33° SE 16:03:33 10° ENE daylight
25 Apr - 18:03:02 10° WSW 18:13:18 84° SSE 18:32:47 10° ENE daylight
25 Apr - 20:24:04 10° W 20:38:56 80° N 21:02:35 10° E daylight
25 Apr - 22:46:55 10° WNW 23:06:44 81° SSW 23:30:10 10° ESE daylight
26 Apr - 01:12:23 10° WNW 01:33:09 45° SW 01:52:04 10° SSE visible
26 Apr - 03:49:33 10° WSW 03:56:25 12° SW 04:02:45 10° SW visible
26 Apr - 16:05:08 10° SSW 16:12:30 45° SE 16:25:42 10° ENE daylight
26 Apr - 18:23:56 10° WSW 18:34:38 87° NNW 18:54:46 10° ENE daylight
26 Apr - 20:45:16 10° W 21:00:44 82° N 21:24:37 10° E daylight
26 Apr - 23:08:16 10° WNW 23:28:18 73° SSW 23:51:18 10° SE daylight
